To NAV CANADA Home Page Login to a new session Search on AWWS site Feedback and Comments Disclaimer Vers la page française équivalente Tips FAQ What's new on the site To the Forecasts and Observations / NOTAM section To "File a Flight Plan" website Publications and other links Update of the User's profile FIC Telephone Numbers My Weather Data Folder Route Weather Data Regional Weather Data Local Weather Data To the Forecasts and Observations / NOTAM section
Request Generated 04/30/2017 at 05:03:42 UTC . Weather information available at that time is displayed.

METAR/TAF

NAIN/NL    

LWIS CYDP 300500Z AUTO 30041G50KT M06/M14 A2962=
LWIS CYDP 300400Z AUTO 30042G49KT M05/M12 A2959=
LWIS CYDP 300300Z AUTO 30036G44KT M04/M11 A2957=

*** REMARK        : Forecast period has ended; this was the last TAF issued
*** REMARQUE : La période de prévision est échue; ceci était le dernier TAF qui a été émis
TAF AMD CYDP 292236Z 2922/2923 30022G32KT P6SM BKN020 TEMPO 2922/2923
FEW020 BKN080
RMK NXT FCST WILL BE ISSUED AT 300945Z=
Your time UTC time
Weather data provided by Environment Canada and NAV CANADA